Lone Rock, WI

6:48 AM CST on December 07, 2016 (GMT -0600)
Tri-County Regional

Weather History for KLNR - November, 2011

Change the Weather History Date:

Sunday, November 6, 2011

  Actual Average Record
Temperature  
Mean Temperature 54 °F -  
Max Temperature 62 °F 47 °F 70 °F (2016)
Min Temperature 46 °F 30 °F 21 °F (2010)
Degree Days  
Heating Degree Days 12    
Growing Degree Days 4 (Base 50)    
Moisture  
Dew Point 42 °F    
Average Humidity 67    
Maximum Humidity 77    
Minimum Humidity 54    
Precipitation  
Precipitation 0.00 in - - ()
Sea Level Pressure  
Sea Level Pressure 29.89 in    
Wind  
Wind Speed 9 mph (SSW)    
Max Wind Speed 17 mph    
Max Gust Speed 28 mph    
Visibility 9 miles    
Events      
Averages and records for this station are not official NWS values.
T = Trace of Precipitation, MM = Missing Value Source: NWS Daily Summary

Daily Weather History Graph

Daily Weather History Graph

Search for Another Location

Airport or City:

Trip Planner

Search our weather history database for the weather conditions in past years. The results will help you decide how hot, cold, wet, or windy it might be!

Date:

Astronomy

Nov. 06, 2011 Rise Set
Actual Time 6:41 AM CST 4:46 PM CST
Civil Twilight 6:11 AM CST 5:16 PM CST
Nautical Twilight 5:37 AM CST 5:50 PM CST
Astronomical Twilight 5:04 AM CST 6:23 PM CST
Moon 2:35 PM CST (11/6) 2:42 AM CST (11/6)
Length of Visible Light 11h 04m
Length of Day
10h 04m
Waxing Gibbous, 86% of the Moon is Illuminated
Nov 6
Waxing Gibbous
Nov 10
Full
Nov 18
Last Quarter
Nov 25
New
Dec 2
First Quarter

Hourly Weather History & Observations

Time (CST) Temp. Dew Point Humidity Pressure Visibility Wind Dir Wind Speed Gust Speed Precip Events Conditions
12:56 AM 48.9 °F 37.9 °F 66% 29.93 in 10.0 mi SSE 8.1 mph - N/A   Clear
1:56 AM 48.0 °F 37.9 °F 68% 29.91 in 10.0 mi Variable 6.9 mph - N/A   Clear
1:56 AM 46.9 °F 37.9 °F 71% 29.91 in 10.0 mi South 9.2 mph - N/A   Clear
2:56 AM 48.0 °F 39.0 °F 71% 29.90 in 10.0 mi South 8.1 mph - N/A   Clear
3:56 AM 48.0 °F 39.9 °F 74% 29.88 in 9.0 mi South 9.2 mph - N/A   Clear
4:56 AM 48.0 °F 39.9 °F 74% 29.87 in 8.0 mi South 8.1 mph - N/A   Mostly Cloudy
5:56 AM 48.0 °F 41.0 °F 77% 29.86 in 8.0 mi East 4.6 mph - N/A   Mostly Cloudy
6:56 AM 48.0 °F 41.0 °F 77% 29.86 in 6.0 mi Variable 4.6 mph - N/A   Haze
7:56 AM 50.0 °F 42.1 °F 74% 29.87 in 6.0 mi SSE 8.1 mph - N/A   Haze
8:56 AM 52.0 °F 44.1 °F 74% 29.85 in 7.0 mi South 16.1 mph 21.9 mph N/A   Clear
9:52 AM 55.4 °F 44.6 °F 67% 29.87 in 8.0 mi SSW 8.1 mph 19.6 mph N/A   Mostly Cloudy
9:56 AM 55.0 °F 45.0 °F 69% 29.86 in 8.0 mi SSW 17.3 mph 25.3 mph N/A   Overcast
10:33 AM 57.2 °F 46.4 °F 67% 29.87 in 9.0 mi South 12.7 mph 23.0 mph N/A   Overcast
10:56 AM 57.0 °F 46.0 °F 67% 29.86 in 9.0 mi SSW 13.8 mph 20.7 mph N/A   Overcast
11:18 AM 57.2 °F 46.4 °F 67% 29.86 in 9.0 mi SSW 12.7 mph 25.3 mph N/A   Overcast
11:56 AM 57.9 °F 46.0 °F 65% 29.84 in 10.0 mi South 16.1 mph 24.2 mph N/A   Overcast
3:56 PM 61.0 °F 44.1 °F 54% 29.86 in 10.0 mi SW 16.1 mph 27.6 mph N/A   Clear
4:56 PM 59.0 °F 43.0 °F 55% 29.89 in 10.0 mi SW 12.7 mph 20.7 mph N/A   Clear
5:56 PM 57.0 °F 41.0 °F 55% 29.93 in 10.0 mi WSW 10.4 mph 18.4 mph N/A   Clear
6:56 PM 52.0 °F 39.0 °F 61% 29.97 in 10.0 mi WSW 8.1 mph - N/A   Clear
7:56 PM 48.0 °F 37.0 °F 66% 29.99 in 10.0 mi West 6.9 mph - N/A   Clear
8:56 PM 48.0 °F 35.1 °F 61% 30.02 in 10.0 mi West 9.2 mph - N/A   Clear